Pagina principale
METAR-TAF:

METAR-TAF

Aeroporti :

Bredasdorp, Sudafrica

latitudine: 34-33-17S, longitudine: 20-15-02E, altezza: 16 m

Osservazione

Il bollettino è stato emesso 1 ora e 0 minuti fa, alle 12:00 UTC
Vento 13 kt da ovest/sud-ovest
Temperature 26°C
Umidità 51%
Pressione 1011 hPa

METAR: FAOB 061200Z AUTO 24013KT //// // ////// 26/15 Q1011

Ora: 15:00 (13:00 UTC)


TAF: mancante

Osservazioni e previsioni meteorologiche di più di 4000 aeroporti (messaggi METAR e TAF).

Le stazioni disponibili sono rappresentate dai dischi gialli e rossi sulla carta.

Puntare il mouse per vedere il nome della stazione.

Clicca sopra per visualizzare le osservazioni e previsioni meteorologiche.

Per cambiare la mappa : fare clic sui pulsanti verdi con una croce nera per ingrandire, il pulsante verde con un trattino per diminuire, o sulla freccia verde per le mappe adiacenti.


METAR-TAF: